Погода в Турксаде

Россия / Ставропольский край     45°13′00″N   44°52′40″E
темп.,
°C
ветер,
м/с
пор.,
м/с
влажн.,
%
обл.,
%
осадки,
мм/ч
давл.,
гПа
погр.,
м
8 марта, пн
пн800:00−1ю36480 0.0 1022182
03:00−1ююз36494 0.0 1022180
06:00−1ююз59530 0.0 1021235
09:00+2юз56390 0.0 1021664
12:00+5з45330 0.0 10201314
15:00+7зюз453834 0.0 10181664
18:00+4юз3452100 0.0 101757
21:00+2юз445885 0.0 101866
9 марта, вт
вт900:00+1юз346842 0.0 101746
03:000зюз346861 0.0 101761
06:000зюз347377 0.0 101670
09:00+5з6105752 0.0 10161308
12:00+8зсз7104447 0.0 10151997
15:00+8з8104573 0.1 10151945
18:00+4зсз6980100 0.6 1016878
21:00+3з497999 0.6 1018500
10 марта, ср
ср1000:00+1з598395 0.1 1019424
03:00−1зсз5106886 0.1 1020358
06:00−1зсз597185 0.0 1022361
09:00+1зсз795793 0.0 10241410
12:00+3сз7948100 0.0 10231662
15:00+3сз784488 0.0 10231703
18:00+1ссз465382 0.0 1024443
21:00−1ссв256091 0.0 1025398
11 марта, чт
чт1100:00−2св5650100 0.0 1025503
03:00−3св4647100 0.0 1025566
06:00−3св4548100 0.0 1026735
09:00−3всв6646100 0.0 1027880
12:00−2всв7739100 0.0 10271054
15:00−2всв7735100 0.0 10261184
18:00−4всв6735100 0.0 10271105
21:00−5всв7832100 0.0 10281039
12 марта, пт
пт1200:00−5всв7832100 0.0 1028949
03:00−6всв7834100 0.0 10281029
06:00−7всв6834100 0.0 1030971
09:00−6всв6730100 0.0 1032981
12:00−4всв6625100 0.0 10321185
15:00−3всв5524100 0.0 10331377
18:00−4св462995 0.0 1034415
21:00−6всв363365 0.0 1035253